Time,TemperatureF,DewpointF,PressureIn,WindDirection,WindDirectionDegrees,WindSpeedMPH,WindSpeedGustMPH,Humidity,HourlyPrecipIn,Conditions,Clouds,dailyrainin,SoftwareType,DateUTC
2013-07-13 00:00:00,65.3,62.3,30.13,NE,47,0.0,0.0,90,0.00,,,0.00,WeatherCatV1.15B25,2013-07-13 04:00:00,
2013-07-13 00:05:00,65.3,62.3,30.13,NE,47,0.0,0.0,90,0.00,,,0.00,WeatherCatV1.15B25,2013-07-13 04:05:00,
2013-07-13 00:10:00,65.3,62.6,30.13,NE,45,0.0,0.0,91,0.00,,,0.00,WeatherCatV1.15B25,2013-07-13 04:10:00,
2013-07-13 00:15:00,65.3,62.6,30.13,NE,45,0.0,0.0,91,0.00,,,0.00,WeatherCatV1.15B25,2013-07-13 04:15:00,
2013-07-13 00:20:00,65.3,62.6,30.13,NE,45,0.0,0.0,91,0.00,,,0.00,WeatherCatV1.15B25,2013-07-13 04:20:00,
2013-07-13 00:25:00,65.3,62.6,30.13,NE,45,0.0,0.0,91,0.00,,,0.00,WeatherCatV1.15B25,2013-07-13 04:25:00,
2013-07-13 00:30:00,65.3,62.6,30.13,NE,45,0.0,0.0,91,0.00,,,0.00,WeatherCatV1.15B25,2013-07-13 04:30:00,
2013-07-13 00:35:00,65.3,62.6,30.13,NE,45,0.0,0.0,91,0.00,,,0.00,WeatherCatV1.15B25,2013-07-13 04:35:00,
2013-07-13 00:40:00,65.2,62.5,30.13,NE,45,0.0,0.0,91,0.00,,,0.00,WeatherCatV1.15B25,2013-07-13 04:40:00,
2013-07-13 00:45:00,65.2,62.5,30.13,NE,45,0.0,0.0,91,0.00,,,0.00,WeatherCatV1.15B25,2013-07-13 04:45:00,
2013-07-13 00:50:00,65.2,62.5,30.13,NE,45,0.0,0.0,91,0.00,,,0.00,WeatherCatV1.15B25,2013-07-13 04:50:00,
2013-07-13 00:55:00,65.2,62.5,30.13,NE,45,0.0,0.0,91,0.00,,,0.00,WeatherCatV1.15B25,2013-07-13 04:55:00,
2013-07-13 01:00:00,65.2,62.5,30.13,NE,45,0.0,0.0,91,0.00,,,0.00,WeatherCatV1.15B25,2013-07-13 05:00:00,
2013-07-13 01:05:00,65.2,62.5,30.13,NE,45,0.0,0.0,91,0.00,,,0.00,WeatherCatV1.15B25,2013-07-13 05:05:00,
2013-07-13 01:10:00,65.2,62.8,30.14,NE,45,0.0,0.0,92,0.00,,,0.00,WeatherCatV1.15B25,2013-07-13 05:10:00,
2013-07-13 01:15:00,65.2,62.8,30.14,NE,45,0.0,0.0,92,0.00,,,0.00,WeatherCatV1.15B25,2013-07-13 05:15:00,
2013-07-13 01:20:00,65.2,62.8,30.14,NE,45,0.0,0.0,92,0.00,,,0.00,WeatherCatV1.15B25,2013-07-13 05:20:00,
2013-07-13 01:25:00,65.2,62.8,30.14,NE,45,0.0,0.0,92,0.00,,,0.00,WeatherCatV1.15B25,2013-07-13 05:25:00,
2013-07-13 01:30:00,65.2,62.8,30.14,NE,45,0.0,0.0,92,0.00,,,0.00,WeatherCatV1.15B25,2013-07-13 05:30:00,
2013-07-13 01:35:00,65.2,62.8,30.14,NE,45,0.0,0.0,92,0.00,,,0.00,WeatherCatV1.15B25,2013-07-13 05:35:00,
2013-07-13 01:40:00,65.3,62.9,30.13,NE,45,0.0,0.0,92,0.00,,,0.00,WeatherCatV1.15B25,2013-07-13 05:40:00,
2013-07-13 01:45:00,65.3,62.9,30.13,NE,45,0.0,0.0,92,0.00,,,0.00,WeatherCatV1.15B25,2013-07-13 05:45:00,
2013-07-13 01:50:00,65.3,62.9,30.13,NE,45,0.0,0.0,92,0.00,,,0.00,WeatherCatV1.15B25,2013-07-13 05:50:00,
2013-07-13 01:55:00,65.3,62.9,30.13,NE,45,0.0,0.0,92,0.00,,,0.00,WeatherCatV1.15B25,2013-07-13 05:55:00,
2013-07-13 02:00:00,65.3,62.9,30.13,NE,45,0.0,0.0,92,0.00,,,0.00,WeatherCatV1.15B25,2013-07-13 06:00:00,
2013-07-13 02:05:00,65.3,62.9,30.13,NE,45,0.0,0.0,92,0.00,,,0.00,WeatherCatV1.15B25,2013-07-13 06:05:00,
2013-07-13 02:10:00,65.5,63.4,30.14,NE,45,0.0,0.0,93,0.00,,,0.00,WeatherCatV1.15B25,2013-07-13 06:10:00,
2013-07-13 02:15:00,65.5,63.4,30.14,NE,45,0.0,0.0,93,0.00,,,0.00,WeatherCatV1.15B25,2013-07-13 06:15:00,
2013-07-13 02:20:00,65.5,63.4,30.14,NE,45,0.0,0.0,93,0.00,,,0.00,WeatherCatV1.15B25,2013-07-13 06:20:00,
2013-07-13 02:25:00,65.5,63.4,30.14,NE,45,0.0,0.0,93,0.00,,,0.00,WeatherCatV1.15B25,2013-07-13 06:25:00,
2013-07-13 02:30:00,65.5,63.4,30.14,NE,45,0.0,0.0,93,0.00,,,0.00,WeatherCatV1.15B25,2013-07-13 06:30:00,
2013-07-13 02:35:00,65.4,63.6,30.14,NNE,22,0.0,3.0,94,0.00,,,0.00,WeatherCatV1.15B25,2013-07-13 06:35:00,
2013-07-13 02:40:00,65.4,63.6,30.14,NNE,22,0.0,3.0,94,0.00,,,0.00,WeatherCatV1.15B25,2013-07-13 06:40:00,
2013-07-13 02:45:00,65.4,63.6,30.14,NNE,22,0.0,3.0,94,0.00,,,0.00,WeatherCatV1.15B25,2013-07-13 06:45:00,
2013-07-13 02:50:00,65.4,63.6,30.14,NNE,22,0.0,3.0,94,0.00,,,0.00,WeatherCatV1.15B25,2013-07-13 06:50:00,
2013-07-13 02:55:00,65.4,63.6,30.14,NNE,22,0.0,3.0,94,0.00,,,0.00,WeatherCatV1.15B25,2013-07-13 06:55:00,
2013-07-13 03:00:00,65.4,63.6,30.14,NNE,22,0.0,3.0,94,0.00,,,0.00,WeatherCatV1.15B25,2013-07-13 07:00:00,
2013-07-13 03:05:00,65.2,63.7,30.14,North,0,0.0,3.0,95,0.00,,,0.00,WeatherCatV1.15B25,2013-07-13 07:05:00,
2013-07-13 03:10:00,65.2,63.7,30.14,North,0,0.0,3.0,95,0.00,,,0.00,WeatherCatV1.15B25,2013-07-13 07:10:00,
2013-07-13 03:15:00,65.2,63.7,30.14,North,0,0.0,3.0,95,0.00,,,0.00,WeatherCatV1.15B25,2013-07-13 07:15:00,
2013-07-13 03:20:00,65.2,63.7,30.14,North,0,0.0,3.0,95,0.00,,,0.00,WeatherCatV1.15B25,2013-07-13 07:20:00,
2013-07-13 03:25:00,65.2,63.7,30.14,North,0,0.0,3.0,95,0.00,,,0.00,WeatherCatV1.15B25,2013-07-13 07:25:00,
2013-07-13 03:30:00,65.2,63.7,30.14,North,0,0.0,3.0,95,0.00,,,0.00,WeatherCatV1.15B25,2013-07-13 07:30:00,
2013-07-13 03:35:00,65.2,63.7,30.14,North,0,0.0,3.0,95,0.00,,,0.00,WeatherCatV1.15B25,2013-07-13 07:35:00,
2013-07-13 03:40:00,64.8,63.6,30.16,NNE,22,0.0,4.0,96,0.00,,,0.00,WeatherCatV1.15B25,2013-07-13 07:40:00,
2013-07-13 03:45:00,64.8,63.6,30.16,NNE,22,0.0,4.0,96,0.00,,,0.00,WeatherCatV1.15B25,2013-07-13 07:45:00,
2013-07-13 03:50:00,64.8,63.6,30.16,NNE,22,0.0,4.0,96,0.00,,,0.00,WeatherCatV1.15B25,2013-07-13 07:50:00,
2013-07-13 03:55:00,64.8,63.6,30.16,NNE,22,0.0,4.0,96,0.00,,,0.00,WeatherCatV1.15B25,2013-07-13 07:55:00,
2013-07-13 04:00:00,64.8,63.6,30.16,NNE,22,0.0,4.0,96,0.00,,,0.00,WeatherCatV1.15B25,2013-07-13 08:00:00,
2013-07-13 04:05:00,64.8,63.6,30.16,NNE,22,0.0,4.0,96,0.00,,,0.00,WeatherCatV1.15B25,2013-07-13 08:05:00,
2013-07-13 04:10:00,64.7,63.5,30.17,NNE,22,0.0,2.0,96,0.00,,,0.00,WeatherCatV1.15B25,2013-07-13 08:10:00,
2013-07-13 04:15:00,64.7,63.5,30.17,NNE,22,0.0,2.0,96,0.00,,,0.00,WeatherCatV1.15B25,2013-07-13 08:15:00,
2013-07-13 04:20:00,64.7,63.5,30.17,NNE,22,0.0,2.0,96,0.00,,,0.00,WeatherCatV1.15B25,2013-07-13 08:20:00,
2013-07-13 04:25:00,64.7,63.5,30.17,NNE,22,0.0,2.0,96,0.00,,,0.00,WeatherCatV1.15B25,2013-07-13 08:25:00,
2013-07-13 04:30:00,64.7,63.5,30.17,NNE,22,0.0,2.0,96,0.00,,,0.00,WeatherCatV1.15B25,2013-07-13 08:30:00,
2013-07-13 04:35:00,64.7,63.5,30.17,NNE,22,0.0,2.0,96,0.00,,,0.00,WeatherCatV1.15B25,2013-07-13 08:35:00,
2013-07-13 04:40:00,64.8,63.6,30.17,NNE,22,0.0,3.0,96,0.00,,,0.00,WeatherCatV1.15B25,2013-07-13 08:40:00,
2013-07-13 04:45:00,64.8,63.6,30.17,NNE,22,0.0,3.0,96,0.00,,,0.00,WeatherCatV1.15B25,2013-07-13 08:45:00,
2013-07-13 04:50:00,64.8,63.6,30.17,NNE,22,0.0,3.0,96,0.00,,,0.00,WeatherCatV1.15B25,2013-07-13 08:50:00,
2013-07-13 04:55:00,64.8,63.6,30.17,NNE,22,0.0,3.0,96,0.00,,,0.00,WeatherCatV1.15B25,2013-07-13 08:55:00,
2013-07-13 05:00:00,64.8,63.6,30.17,NNE,22,0.0,3.0,96,0.00,,,0.00,WeatherCatV1.15B25,2013-07-13 09:00:00,
2013-07-13 05:05:00,64.8,63.6,30.17,NNE,22,0.0,3.0,96,0.00,,,0.00,WeatherCatV1.15B25,2013-07-13 09:05:00,
2013-07-13 05:10:00,64.8,63.6,30.17,NNE,22,0.0,4.0,96,0.00,,,0.00,WeatherCatV1.15B25,2013-07-13 09:10:00,
2013-07-13 05:15:00,64.8,63.6,30.17,NNE,22,0.0,4.0,96,0.00,,,0.00,WeatherCatV1.15B25,2013-07-13 09:15:00,
2013-07-13 05:20:00,64.8,63.6,30.17,NNE,22,0.0,4.0,96,0.00,,,0.00,WeatherCatV1.15B25,2013-07-13 09:20:00,
2013-07-13 05:25:00,64.8,63.6,30.17,NNE,22,0.0,4.0,96,0.00,,,0.00,WeatherCatV1.15B25,2013-07-13 09:25:00,
2013-07-13 05:30:00,64.8,63.6,30.17,NNE,22,0.0,4.0,96,0.00,,,0.00,WeatherCatV1.15B25,2013-07-13 09:30:00,
2013-07-13 05:35:00,64.8,63.6,30.17,NNE,22,0.0,4.0,96,0.00,,,0.00,WeatherCatV1.15B25,2013-07-13 09:35:00,
2013-07-13 05:40:00,64.8,63.6,30.19,North,0,0.0,4.0,96,0.00,,,0.00,WeatherCatV1.15B25,2013-07-13 09:40:00,
2013-07-13 05:45:00,64.8,63.6,30.19,North,0,0.0,4.0,96,0.00,,,0.00,WeatherCatV1.15B25,2013-07-13 09:45:00,
2013-07-13 05:50:00,64.8,63.6,30.19,North,0,0.0,4.0,96,0.00,,,0.00,WeatherCatV1.15B25,2013-07-13 09:50:00,
2013-07-13 05:55:00,64.8,63.6,30.19,North,0,0.0,4.0,96,0.00,,,0.00,WeatherCatV1.15B25,2013-07-13 09:55:00,
2013-07-13 06:00:00,64.8,63.6,30.19,North,0,0.0,4.0,96,0.00,,,0.00,WeatherCatV1.15B25,2013-07-13 10:00:00,
2013-07-13 06:14:00,64.9,63.4,30.19,NE,47,0.0,2.0,95,0.00,,,0.00,WeatherCatV1.15B25,2013-07-13 10:14:00,
2013-07-13 06:19:00,65.0,63.2,30.19,NE,36,1.0,2.0,94,0.00,,,0.00,WeatherCatV1.15B25,2013-07-13 10:19:00,
2013-07-13 06:24:00,65.0,63.2,30.20,ESE,123,1.0,2.0,94,0.00,,,0.00,WeatherCatV1.15B25,2013-07-13 10:24:00,
2013-07-13 06:29:00,65.0,63.2,30.20,NE,48,1.0,1.0,94,0.00,,,0.00,WeatherCatV1.15B25,2013-07-13 10:29:00,
2013-07-13 06:34:00,65.0,63.2,30.20,NNE,15,1.0,1.0,94,0.00,,,0.00,WeatherCatV1.15B25,2013-07-13 10:34:00,
2013-07-13 06:39:00,64.9,63.1,30.20,NNE,27,0.0,1.0,94,0.00,,,0.00,WeatherCatV1.15B25,2013-07-13 10:39:00,
2013-07-13 06:45:00,64.8,63.0,30.20,NNE,27,0.0,0.0,94,0.00,,,0.00,WeatherCatV1.15B25,2013-07-13 10:45:00,
2013-07-13 06:50:00,64.8,63.0,30.20,NNE,27,0.0,0.0,94,0.00,,,0.00,WeatherCatV1.15B25,2013-07-13 10:50:00,
2013-07-13 06:55:00,64.8,63.0,30.20,NNE,14,0.0,2.0,94,0.00,,,0.00,WeatherCatV1.15B25,2013-07-13 10:55:00,
2013-07-13 06:59:00,64.8,63.0,30.20,NNE,24,1.0,1.0,94,0.00,,,0.00,WeatherCatV1.15B25,2013-07-13 10:59:00,
2013-07-13 07:04:00,64.8,63.0,30.20,NNE,15,0.0,2.0,94,0.00,,,0.00,WeatherCatV1.15B25,2013-07-13 11:04:00,
2013-07-13 07:09:00,64.8,63.0,30.20,NNE,23,0.0,2.0,94,0.00,,,0.00,WeatherCatV1.15B25,2013-07-13 11:09:00,
2013-07-13 07:14:00,64.7,62.9,30.20,ENE,58,0.0,1.0,94,0.00,,,0.00,WeatherCatV1.15B25,2013-07-13 11:14:00,
2013-07-13 07:19:00,64.7,62.9,30.21,NE,48,0.0,1.0,94,0.00,,,0.00,WeatherCatV1.15B25,2013-07-13 11:19:00,
2013-07-13 07:24:00,64.6,63.1,30.21,ENE,75,0.0,2.0,95,0.00,,,0.00,WeatherCatV1.15B25,2013-07-13 11:24:00,
2013-07-13 07:30:00,64.7,63.2,30.21,ENE,57,0.0,1.0,95,0.00,,,0.00,WeatherCatV1.15B25,2013-07-13 11:30:00,
2013-07-13 07:35:00,64.7,63.2,30.21,ENE,57,0.0,0.0,95,0.00,,,0.01,WeatherCatV1.15B25,2013-07-13 11:35:00,
2013-07-13 07:40:00,64.7,63.2,30.22,NNE,27,0.0,0.0,95,0.00,,,0.01,WeatherCatV1.15B25,2013-07-13 11:40:00,
2013-07-13 07:45:00,64.7,63.5,30.22,NNE,28,0.0,0.0,96,0.00,,,0.01,WeatherCatV1.15B25,2013-07-13 11:45:00,
2013-07-13 07:50:00,64.7,63.5,30.22,NNE,28,0.0,0.0,96,0.00,,,0.01,WeatherCatV1.15B25,2013-07-13 11:50:00,
2013-07-13 07:55:00,64.7,63.5,30.22,NNE,28,0.0,0.0,96,0.00,,,0.01,WeatherCatV1.15B25,2013-07-13 11:55:00,
2013-07-13 08:00:00,64.8,63.6,30.23,North,7,0.0,0.0,96,0.00,,,0.01,WeatherCatV1.15B25,2013-07-13 12:00:00,
2013-07-13 08:05:00,64.7,63.5,30.23,North,7,0.0,0.0,96,0.00,,,0.01,WeatherCatV1.15B25,2013-07-13 12:05:00,
2013-07-13 08:10:00,64.8,63.6,30.23,North,7,0.0,0.0,96,0.00,,,0.01,WeatherCatV1.15B25,2013-07-13 12:10:00,
2013-07-13 08:15:00,64.8,63.6,30.23,North,7,0.0,2.0,96,0.00,,,0.01,WeatherCatV1.15B25,2013-07-13 12:15:00,
2013-07-13 08:20:00,64.8,63.6,30.23,North,7,0.0,0.0,96,0.00,,,0.01,WeatherCatV1.15B25,2013-07-13 12:20:00,
2013-07-13 08:25:00,64.9,63.7,30.23,North,7,0.0,0.0,96,0.00,,,0.01,WeatherCatV1.15B25,2013-07-13 12:25:00,
2013-07-13 08:30:00,65.0,63.8,30.23,NNE,13,0.0,2.0,96,0.00,,,0.01,WeatherCatV1.15B25,2013-07-13 12:30:00,
2013-07-13 08:35:00,65.1,64.2,30.23,NNE,13,0.0,0.0,97,0.00,,,0.01,WeatherCatV1.15B25,2013-07-13 12:35:00,
2013-07-13 08:40:00,65.3,64.4,30.23,NNE,13,0.0,0.0,97,0.00,,,0.01,WeatherCatV1.15B25,2013-07-13 12:40:00,
2013-07-13 08:45:00,65.4,64.2,30.23,NNE,13,0.0,1.0,96,0.00,,,0.01,WeatherCatV1.15B25,2013-07-13 12:45:00,
2013-07-13 08:50:00,65.4,64.2,30.23,NNE,18,1.0,1.0,96,0.00,,,0.01,WeatherCatV1.15B25,2013-07-13 12:50:00,
2013-07-13 08:55:00,65.4,64.2,30.23,NNE,12,0.0,0.0,96,0.00,,,0.01,WeatherCatV1.15B25,2013-07-13 12:55:00,
2013-07-13 09:00:00,65.4,64.2,30.23,NNE,12,0.0,2.0,96,0.00,,,0.01,WeatherCatV1.15B25,2013-07-13 13:00:00,
2013-07-13 09:05:00,65.4,64.2,30.23,North,2,0.0,0.0,96,0.00,,,0.01,WeatherCatV1.15B25,2013-07-13 13:05:00,
2013-07-13 09:10:00,65.5,64.3,30.23,North,2,0.0,0.0,96,0.00,,,0.01,WeatherCatV1.15B25,2013-07-13 13:10:00,
2013-07-13 09:15:00,65.6,64.4,30.23,NNE,22,1.0,3.0,96,0.00,,,0.01,WeatherCatV1.15B25,2013-07-13 13:15:00,
2013-07-13 09:20:00,65.7,64.5,30.23,East,84,0.0,1.0,96,0.00,,,0.01,WeatherCatV1.15B25,2013-07-13 13:20:00,
2013-07-13 09:25:00,65.8,64.9,30.23,NE,46,0.0,1.0,97,0.00,,,0.01,WeatherCatV1.15B25,2013-07-13 13:25:00,
2013-07-13 09:30:00,65.9,65.0,30.23,NE,46,0.0,0.0,97,0.00,,,0.01,WeatherCatV1.15B25,2013-07-13 13:30:00,
2013-07-13 09:35:00,66.1,65.2,30.23,NE,46,0.0,0.0,97,0.00,,,0.01,WeatherCatV1.15B25,2013-07-13 13:35:00,
2013-07-13 09:40:00,66.2,65.0,30.23,NE,40,0.0,0.0,96,0.00,,,0.01,WeatherCatV1.15B25,2013-07-13 13:40:00,
2013-07-13 09:45:00,66.5,65.6,30.23,NE,40,0.0,0.0,97,0.00,,,0.01,WeatherCatV1.15B25,2013-07-13 13:45:00,
2013-07-13 09:50:00,66.6,65.4,30.23,NE,40,0.0,0.0,96,0.00,,,0.01,WeatherCatV1.15B25,2013-07-13 13:50:00,
2013-07-13 09:55:00,66.8,65.6,30.23,NNE,23,0.0,0.0,96,0.00,,,0.01,WeatherCatV1.15B25,2013-07-13 13:55:00,
2013-07-13 10:00:00,66.7,65.5,30.23,NNE,24,0.0,0.0,96,0.00,,,0.01,WeatherCatV1.15B25,2013-07-13 14:00:00,
2013-07-13 10:05:00,66.8,65.3,30.23,NNE,19,0.0,2.0,95,0.00,,,0.01,WeatherCatV1.15B25,2013-07-13 14:05:00,
2013-07-13 10:10:00,66.9,65.7,30.23,NNE,17,0.0,2.0,96,0.00,,,0.01,WeatherCatV1.15B25,2013-07-13 14:10:00,
2013-07-13 10:15:00,66.8,65.3,30.23,NNE,17,0.0,3.0,95,0.00,,,0.01,WeatherCatV1.15B25,2013-07-13 14:15:00,
2013-07-13 10:20:00,66.9,65.4,30.23,NNE,13,0.0,2.0,95,0.00,,,0.01,WeatherCatV1.15B25,2013-07-13 14:20:00,
2013-07-13 10:25:00,66.9,65.4,30.23,NE,46,0.0,1.0,95,0.00,,,0.01,WeatherCatV1.15B25,2013-07-13 14:25:00,
2013-07-13 10:30:00,66.9,65.4,30.24,NE,46,0.0,0.0,95,0.00,,,0.01,WeatherCatV1.15B25,2013-07-13 14:30:00,
2013-07-13 10:35:00,67.0,65.5,30.24,NE,46,0.0,1.0,95,0.00,,,0.01,WeatherCatV1.15B25,2013-07-13 14:35:00,
2013-07-13 10:40:00,67.1,65.6,30.24,ENE,66,0.0,1.0,95,0.00,,,0.01,WeatherCatV1.15B25,2013-07-13 14:40:00,
2013-07-13 10:45:00,67.2,65.7,30.24,NE,46,0.0,1.0,95,0.00,,,0.01,WeatherCatV1.15B25,2013-07-13 14:45:00,
2013-07-13 10:50:00,67.5,66.0,30.24,NE,46,0.0,0.0,95,0.00,,,0.01,WeatherCatV1.15B25,2013-07-13 14:50:00,
2013-07-13 10:55:00,67.8,66.0,30.24,NNE,19,1.0,2.0,94,0.00,,,0.01,WeatherCatV1.15B25,2013-07-13 14:55:00,
2013-07-13 11:00:00,68.0,66.2,30.24,NNE,22,0.0,0.0,94,0.00,,,0.01,WeatherCatV1.15B25,2013-07-13 15:00:00,
2013-07-13 11:05:00,68.4,66.6,30.24,NNE,22,0.0,2.0,94,0.00,,,0.01,WeatherCatV1.15B25,2013-07-13 15:05:00,
2013-07-13 11:10:00,68.7,66.3,30.24,North,11,0.0,0.0,92,0.00,,,0.01,WeatherCatV1.15B25,2013-07-13 15:10:00,
2013-07-13 11:15:00,68.7,66.3,30.24,NNE,26,0.0,1.0,92,0.00,,,0.01,WeatherCatV1.15B25,2013-07-13 15:15:00,
2013-07-13 11:20:00,68.9,66.5,30.24,NE,34,0.0,1.0,92,0.00,,,0.01,WeatherCatV1.15B25,2013-07-13 15:20:00,
2013-07-13 11:25:00,68.9,66.2,30.24,NNE,25,0.0,1.0,91,0.00,,,0.01,WeatherCatV1.15B25,2013-07-13 15:25:00,
2013-07-13 11:30:00,69.2,66.8,30.24,North,7,0.0,1.0,92,0.00,,,0.01,WeatherCatV1.15B25,2013-07-13 15:30:00,
2013-07-13 11:35:00,69.3,66.6,30.24,East,88,0.0,0.0,91,0.00,,,0.01,WeatherCatV1.15B25,2013-07-13 15:35:00,
2013-07-13 11:40:00,69.5,66.8,30.25,NE,49,0.0,1.0,91,0.00,,,0.01,WeatherCatV1.15B25,2013-07-13 15:40:00,
2013-07-13 11:45:00,69.7,66.6,30.24,ENE,71,0.0,0.0,90,0.00,,,0.01,WeatherCatV1.15B25,2013-07-13 15:45:00,
2013-07-13 11:50:00,69.9,66.8,30.24,NNE,22,0.0,0.0,90,0.00,,,0.01,WeatherCatV1.15B25,2013-07-13 15:50:00,
2013-07-13 11:55:00,70.2,66.8,30.24,North,7,0.0,1.0,89,0.00,,,0.01,WeatherCatV1.15B25,2013-07-13 15:55:00,
2013-07-13 12:00:00,70.5,67.1,30.24,North,7,0.0,1.0,89,0.00,,,0.01,WeatherCatV1.15B25,2013-07-13 16:00:00,
2013-07-13 12:05:00,70.6,66.5,30.24,NNE,13,3.0,3.0,87,0.00,,,0.01,WeatherCatV1.15B25,2013-07-13 16:05:00,
2013-07-13 12:10:00,70.8,67.1,30.24,NNE,25,0.0,2.0,88,0.00,,,0.01,WeatherCatV1.15B25,2013-07-13 16:10:00,
2013-07-13 12:15:00,70.6,66.5,30.24,NNE,14,0.0,3.0,87,0.00,,,0.01,WeatherCatV1.15B25,2013-07-13 16:15:00,
2013-07-13 12:20:00,70.5,66.4,30.24,ENE,73,0.0,1.0,87,0.00,,,0.01,WeatherCatV1.15B25,2013-07-13 16:20:00,
2013-07-13 12:25:00,70.3,66.2,30.24,ENE,75,0.0,2.0,87,0.00,,,0.01,WeatherCatV1.15B25,2013-07-13 16:25:00,
2013-07-13 12:30:00,70.2,66.5,30.24,NE,49,0.0,0.0,88,0.00,,,0.01,WeatherCatV1.15B25,2013-07-13 16:30:00,
2013-07-13 12:35:00,70.4,66.7,30.24,ENE,77,0.0,3.0,88,0.00,,,0.01,WeatherCatV1.15B25,2013-07-13 16:35:00,
2013-07-13 12:40:00,70.6,66.5,30.24,ESE,108,0.0,2.0,87,0.00,,,0.01,WeatherCatV1.15B25,2013-07-13 16:40:00,
2013-07-13 12:45:00,70.5,66.4,30.24,NE,46,0.0,5.0,87,0.00,,,0.01,WeatherCatV1.15B25,2013-07-13 16:45:00,
2013-07-13 12:50:00,70.5,66.8,30.25,NE,41,0.0,1.0,88,0.00,,,0.01,WeatherCatV1.15B25,2013-07-13 16:50:00,
2013-07-13 12:55:00,70.8,66.7,30.25,ENE,63,0.0,2.0,87,0.00,,,0.01,WeatherCatV1.15B25,2013-07-13 16:55:00,
2013-07-13 13:00:00,70.7,66.6,30.25,North,11,0.0,0.0,87,0.00,,,0.01,WeatherCatV1.15B25,2013-07-13 17:00:00,
2013-07-13 13:05:00,70.5,66.4,30.25,East,94,0.0,0.0,87,0.00,,,0.01,WeatherCatV1.15B25,2013-07-13 17:05:00,
2013-07-13 13:10:00,70.4,66.3,30.25,NNE,28,0.0,3.0,87,0.00,,,0.01,WeatherCatV1.15B25,2013-07-13 17:10:00,
2013-07-13 13:15:00,70.4,66.7,30.25,East,88,1.0,2.0,88,0.00,,,0.01,WeatherCatV1.15B25,2013-07-13 17:15:00,
2013-07-13 13:20:00,70.5,66.4,30.25,NE,55,0.0,3.0,87,0.00,,,0.01,WeatherCatV1.15B25,2013-07-13 17:20:00,
2013-07-13 13:25:00,70.4,66.3,30.25,East,90,0.0,1.0,87,0.00,,,0.01,WeatherCatV1.15B25,2013-07-13 17:25:00,
2013-07-13 13:30:00,70.4,66.3,30.24,East,81,1.0,3.0,87,0.00,,,0.01,WeatherCatV1.15B25,2013-07-13 17:30:00,
2013-07-13 13:35:00,70.6,66.5,30.24,SE,129,0.0,2.0,87,0.00,,,0.01,WeatherCatV1.15B25,2013-07-13 17:35:00,
2013-07-13 13:40:00,70.9,66.8,30.24,NE,38,0.0,2.0,87,0.00,,,0.01,WeatherCatV1.15B25,2013-07-13 17:40:00,
2013-07-13 13:45:00,71.2,67.1,30.24,ENE,70,0.0,0.0,87,0.00,,,0.01,WeatherCatV1.15B25,2013-07-13 17:45:00,
2013-07-13 13:50:00,71.3,66.9,30.24,North,357,2.0,5.0,86,0.00,,,0.01,WeatherCatV1.15B25,2013-07-13 17:50:00,
2013-07-13 13:55:00,71.3,66.9,30.24,ENE,69,1.0,2.0,86,0.00,,,0.01,WeatherCatV1.15B25,2013-07-13 17:55:00,
2013-07-13 14:00:00,71.1,66.7,30.24,NNE,17,1.0,2.0,86,0.00,,,0.01,WeatherCatV1.15B25,2013-07-13 18:00:00,
2013-07-13 14:05:00,71.4,67.0,30.25,North,2,0.0,0.0,86,0.00,,,0.01,WeatherCatV1.15B25,2013-07-13 18:05:00,
2013-07-13 14:10:00,71.2,66.4,30.25,NNE,26,0.0,1.0,85,0.00,,,0.01,WeatherCatV1.15B25,2013-07-13 18:10:00,
2013-07-13 14:15:00,71.3,66.5,30.24,North,2,2.0,2.0,85,0.00,,,0.01,WeatherCatV1.15B25,2013-07-13 18:15:00,
2013-07-13 14:20:00,71.3,66.9,30.24,East,91,0.0,1.0,86,0.00,,,0.01,WeatherCatV1.15B25,2013-07-13 18:20:00,
2013-07-13 14:25:00,71.7,66.9,30.24,North,7,0.0,5.0,85,0.00,,,0.01,WeatherCatV1.15B25,2013-07-13 18:25:00,
2013-07-13 14:30:00,72.1,67.0,30.25,ENE,68,0.0,1.0,84,0.00,,,0.01,WeatherCatV1.15B25,2013-07-13 18:30:00,
2013-07-13 14:35:00,72.0,66.9,30.25,ESE,120,0.0,3.0,84,0.00,,,0.01,WeatherCatV1.15B25,2013-07-13 18:35:00,
2013-07-13 14:40:00,71.9,66.8,30.25,North,11,1.0,2.0,84,0.00,,,0.01,WeatherCatV1.15B25,2013-07-13 18:40:00,
2013-07-13 14:45:00,72.1,67.0,30.25,East,94,2.0,2.0,84,0.00,,,0.01,WeatherCatV1.15B25,2013-07-13 18:45:00,
2013-07-13 14:50:00,71.7,66.6,30.25,NNE,19,0.0,1.0,84,0.00,,,0.01,WeatherCatV1.15B25,2013-07-13 18:50:00,
2013-07-13 14:55:00,71.3,66.9,30.25,NNE,13,0.0,1.0,86,0.00,,,0.01,WeatherCatV1.15B25,2013-07-13 18:55:00,
2013-07-13 15:00:00,71.2,66.8,30.24,East,88,1.0,1.0,86,0.00,,,0.01,WeatherCatV1.15B25,2013-07-13 19:00:00,
2013-07-13 15:05:00,71.0,66.9,30.24,ENE,68,0.0,0.0,87,0.00,,,0.01,WeatherCatV1.15B25,2013-07-13 19:05:00,
2013-07-13 15:10:00,71.3,66.9,30.24,NNE,25,0.0,2.0,86,0.00,,,0.01,WeatherCatV1.15B25,2013-07-13 19:10:00,
2013-07-13 15:15:00,71.8,67.4,30.24,NW,319,0.0,1.0,86,0.00,,,0.01,WeatherCatV1.15B25,2013-07-13 19:15:00,
2013-07-13 15:20:00,72.2,67.4,30.24,NNE,18,0.0,0.0,85,0.00,,,0.01,WeatherCatV1.15B25,2013-07-13 19:20:00,
2013-07-13 15:25:00,72.7,67.6,30.24,NE,48,0.0,3.0,84,0.00,,,0.01,WeatherCatV1.15B25,2013-07-13 19:25:00,
2013-07-13 15:30:00,73.1,67.6,30.24,NNE,17,0.0,3.0,83,0.00,,,0.01,WeatherCatV1.15B25,2013-07-13 19:30:00,
2013-07-13 15:35:00,73.2,68.1,30.24,NNE,18,0.0,0.0,84,0.00,,,0.01,WeatherCatV1.15B25,2013-07-13 19:35:00,
2013-07-13 15:40:00,73.0,67.9,30.24,NNE,13,0.0,3.0,84,0.00,,,0.01,WeatherCatV1.15B25,2013-07-13 19:40:00,
2013-07-13 15:45:00,73.2,68.1,30.24,NNE,20,0.0,1.0,84,0.00,,,0.01,WeatherCatV1.15B25,2013-07-13 19:45:00,
2013-07-13 15:50:00,73.1,68.0,30.23,NNE,20,0.0,0.0,84,0.00,,,0.01,WeatherCatV1.15B25,2013-07-13 19:50:00,
2013-07-13 15:55:00,73.0,67.5,30.24,East,89,1.0,2.0,83,0.00,,,0.01,WeatherCatV1.15B25,2013-07-13 19:55:00,
2013-07-13 16:00:00,72.6,67.5,30.23,NNE,16,1.0,2.0,84,0.00,,,0.01,WeatherCatV1.15B25,2013-07-13 20:00:00,
2013-07-13 16:05:00,72.5,67.4,30.23,North,11,0.0,3.0,84,0.00,,,0.01,WeatherCatV1.15B25,2013-07-13 20:05:00,
2013-07-13 16:10:00,72.5,67.4,30.23,East,93,0.0,3.0,84,0.00,,,0.01,WeatherCatV1.15B25,2013-07-13 20:10:00,
2013-07-13 16:15:00,72.4,67.6,30.23,NE,40,0.0,0.0,85,0.00,,,0.01,WeatherCatV1.15B25,2013-07-13 20:15:00,
2013-07-13 16:20:00,72.4,67.6,30.23,NNE,26,0.0,1.0,85,0.00,,,0.01,WeatherCatV1.15B25,2013-07-13 20:20:00,
2013-07-13 16:25:00,72.5,67.7,30.23,North,353,1.0,2.0,85,0.00,,,0.02,WeatherCatV1.15B25,2013-07-13 20:25:00,
2013-07-13 16:30:00,72.5,67.7,30.23,North,353,0.0,0.0,85,0.00,,,0.02,WeatherCatV1.15B25,2013-07-13 20:30:00,
2013-07-13 16:35:00,72.5,67.7,30.23,North,353,0.0,0.0,85,0.00,,,0.02,WeatherCatV1.15B25,2013-07-13 20:35:00,
2013-07-13 16:40:00,72.7,67.9,30.23,North,7,0.0,2.0,85,0.00,,,0.02,WeatherCatV1.15B25,2013-07-13 20:40:00,
2013-07-13 16:45:00,72.8,68.0,30.23,North,7,0.0,0.0,85,0.00,,,0.02,WeatherCatV1.15B25,2013-07-13 20:45:00,
2013-07-13 16:50:00,72.8,68.0,30.22,North,7,0.0,0.0,85,0.00,,,0.02,WeatherCatV1.15B25,2013-07-13 20:50:00,
2013-07-13 16:55:00,72.8,68.4,30.22,North,7,0.0,0.0,86,0.00,,,0.02,WeatherCatV1.15B25,2013-07-13 20:55:00,
2013-07-13 17:00:00,72.9,68.5,30.22,North,7,0.0,0.0,86,0.00,,,0.02,WeatherCatV1.15B25,2013-07-13 21:00:00,
2013-07-13 17:05:00,73.1,68.7,30.22,North,7,0.0,0.0,86,0.00,,,0.02,WeatherCatV1.15B25,2013-07-13 21:05:00,
2013-07-13 17:10:00,73.3,68.8,30.22,North,7,0.0,0.0,86,0.00,,,0.02,WeatherCatV1.15B25,2013-07-13 21:10:00,
2013-07-13 17:15:00,73.5,68.7,30.22,North,7,0.0,0.0,85,0.00,,,0.02,WeatherCatV1.15B25,2013-07-13 21:15:00,
2013-07-13 17:20:00,73.8,68.7,30.22,North,7,0.0,0.0,84,0.00,,,0.02,WeatherCatV1.15B25,2013-07-13 21:20:00,
2013-07-13 17:25:00,73.9,68.7,30.22,North,7,0.0,1.0,84,0.00,,,0.02,WeatherCatV1.15B25,2013-07-13 21:25:00,
2013-07-13 17:30:00,74.0,69.2,30.22,North,7,0.0,0.0,85,0.00,,,0.02,WeatherCatV1.15B25,2013-07-13 21:30:00,
2013-07-13 17:35:00,74.2,69.0,30.22,North,7,0.0,0.0,84,0.00,,,0.02,WeatherCatV1.15B25,2013-07-13 21:35:00,
2013-07-13 17:40:00,74.3,68.8,30.22,North,7,0.0,0.0,83,0.00,,,0.02,WeatherCatV1.15B25,2013-07-13 21:40:00,
2013-07-13 17:45:00,74.0,68.5,30.22,North,7,0.0,1.0,83,0.00,,,0.02,WeatherCatV1.15B25,2013-07-13 21:45:00,
2013-07-13 17:50:00,73.7,68.6,30.22,North,7,0.0,0.0,84,0.00,,,0.02,WeatherCatV1.15B25,2013-07-13 21:50:00,
2013-07-13 17:55:00,73.4,68.3,30.22,ENE,60,0.0,2.0,84,0.00,,,0.02,WeatherCatV1.15B25,2013-07-13 21:55:00,
2013-07-13 18:00:00,73.3,68.5,30.22,NE,56,0.0,1.0,85,0.00,,,0.02,WeatherCatV1.15B25,2013-07-13 22:00:00,
2013-07-13 18:05:00,73.0,68.2,30.22,NE,56,0.0,0.0,85,0.00,,,0.02,WeatherCatV1.15B25,2013-07-13 22:05:00,
2013-07-13 18:10:00,72.8,68.0,30.22,North,2,0.0,1.0,85,0.00,,,0.02,WeatherCatV1.15B25,2013-07-13 22:10:00,
2013-07-13 18:15:00,72.8,68.0,30.22,North,11,0.0,2.0,85,0.00,,,0.02,WeatherCatV1.15B25,2013-07-13 22:15:00,
2013-07-13 18:20:00,72.7,67.9,30.23,NNE,12,1.0,3.0,85,0.00,,,0.02,WeatherCatV1.15B25,2013-07-13 22:20:00,
2013-07-13 18:25:00,72.4,68.0,30.23,NNE,13,0.0,0.0,86,0.00,,,0.02,WeatherCatV1.15B25,2013-07-13 22:25:00,
2013-07-13 18:30:00,72.1,67.7,30.23,NE,53,0.0,0.0,86,0.00,,,0.02,WeatherCatV1.15B25,2013-07-13 22:30:00,
2013-07-13 18:35:00,71.7,67.6,30.23,North,7,0.0,2.0,87,0.00,,,0.02,WeatherCatV1.15B25,2013-07-13 22:35:00,
2013-07-13 18:40:00,71.4,67.3,30.23,NE,56,1.0,1.0,87,0.00,,,0.02,WeatherCatV1.15B25,2013-07-13 22:40:00,
2013-07-13 18:45:00,71.1,67.0,30.23,NNE,18,1.0,2.0,87,0.00,,,0.02,WeatherCatV1.15B25,2013-07-13 22:45:00,
2013-07-13 18:50:00,70.8,67.1,30.23,NNE,13,0.0,1.0,88,0.00,,,0.02,WeatherCatV1.15B25,2013-07-13 22:50:00,
2013-07-13 18:55:00,70.5,67.1,30.23,NNE,13,0.0,2.0,89,0.00,,,0.02,WeatherCatV1.15B25,2013-07-13 22:55:00,
2013-07-13 19:00:00,70.3,67.2,30.24,NNE,13,0.0,0.0,90,0.00,,,0.02,WeatherCatV1.15B25,2013-07-13 23:00:00,
2013-07-13 19:05:00,70.1,67.3,30.24,NNE,13,0.0,0.0,91,0.00,,,0.02,WeatherCatV1.15B25,2013-07-13 23:05:00,
2013-07-13 19:10:00,69.9,67.1,30.24,NNE,13,0.0,0.0,91,0.00,,,0.02,WeatherCatV1.15B25,2013-07-13 23:10:00,
2013-07-13 19:15:00,69.8,67.0,30.24,NNE,13,0.0,0.0,91,0.00,,,0.02,WeatherCatV1.15B25,2013-07-13 23:15:00,
2013-07-13 19:20:00,69.7,66.9,30.24,NNE,13,0.0,0.0,91,0.00,,,0.02,WeatherCatV1.15B25,2013-07-13 23:20:00,
2013-07-13 19:25:00,69.6,67.2,30.24,NNE,13,0.0,0.0,92,0.00,,,0.02,WeatherCatV1.15B25,2013-07-13 23:25:00,
2013-07-13 19:30:00,69.6,67.2,30.24,NNE,13,0.0,0.0,92,0.00,,,0.02,WeatherCatV1.15B25,2013-07-13 23:30:00,
2013-07-13 19:35:00,69.5,67.1,30.24,NNE,13,0.0,0.0,92,0.00,,,0.02,WeatherCatV1.15B25,2013-07-13 23:35:00,
2013-07-13 19:40:00,69.4,67.0,30.24,NNE,13,0.0,0.0,92,0.00,,,0.02,WeatherCatV1.15B25,2013-07-13 23:40:00,
2013-07-13 19:45:00,69.4,67.0,30.24,NNE,13,0.0,1.0,92,0.00,,,0.02,WeatherCatV1.15B25,2013-07-13 23:45:00,
2013-07-13 19:50:00,69.4,67.0,30.24,NNE,13,0.0,0.0,92,0.00,,,0.02,WeatherCatV1.15B25,2013-07-13 23:50:00,
2013-07-13 19:55:00,69.4,67.0,30.24,NNE,13,0.0,0.0,92,0.00,,,0.02,WeatherCatV1.15B25,2013-07-13 23:55:00,
2013-07-13 20:00:00,69.4,67.0,30.24,NNE,13,0.0,0.0,92,0.00,,,0.02,WeatherCatV1.15B25,2013-07-14 00:00:00,
2013-07-13 20:05:00,69.4,67.0,30.24,NNE,13,0.0,0.0,92,0.00,,,0.02,WeatherCatV1.15B25,2013-07-14 00:05:00,
2013-07-13 20:10:00,69.4,67.0,30.24,NNE,13,0.0,0.0,92,0.00,,,0.02,WeatherCatV1.15B25,2013-07-14 00:10:00,
2013-07-13 20:15:00,69.4,67.0,30.24,NNE,13,0.0,0.0,92,0.00,,,0.02,WeatherCatV1.15B25,2013-07-14 00:15:00,
2013-07-13 20:20:00,69.3,66.9,30.24,NNE,13,0.0,0.0,92,0.00,,,0.02,WeatherCatV1.15B25,2013-07-14 00:20:00,
2013-07-13 20:25:00,69.2,66.8,30.24,NNE,13,0.0,0.0,92,0.00,,,0.02,WeatherCatV1.15B25,2013-07-14 00:25:00,
2013-07-13 20:30:00,69.1,66.7,30.24,NNE,13,0.0,0.0,92,0.00,,,0.02,WeatherCatV1.15B25,2013-07-14 00:30:00,
2013-07-13 20:35:00,69.0,66.6,30.24,NNE,13,0.0,0.0,92,0.00,,,0.02,WeatherCatV1.15B25,2013-07-14 00:35:00,
2013-07-13 20:40:00,69.0,66.6,30.24,NNE,13,0.0,0.0,92,0.00,,,0.02,WeatherCatV1.15B25,2013-07-14 00:40:00,
2013-07-13 20:45:00,68.9,66.8,30.24,NNE,13,0.0,0.0,93,0.00,,,0.02,WeatherCatV1.15B25,2013-07-14 00:45:00,
2013-07-13 20:50:00,69.0,66.9,30.24,NNE,13,0.0,0.0,93,0.00,,,0.02,WeatherCatV1.15B25,2013-07-14 00:50:00,
2013-07-13 20:55:00,69.0,66.9,30.24,NNE,13,0.0,0.0,93,0.00,,,0.02,WeatherCatV1.15B25,2013-07-14 00:55:00,
2013-07-13 21:00:00,68.9,66.8,30.24,NNE,13,0.0,0.0,93,0.00,,,0.02,WeatherCatV1.15B25,2013-07-14 01:00:00,
2013-07-13 21:05:00,68.9,66.8,30.24,NNE,13,0.0,0.0,93,0.00,,,0.02,WeatherCatV1.15B25,2013-07-14 01:05:00,
2013-07-13 21:10:00,68.9,66.8,30.24,NNE,13,0.0,0.0,93,0.00,,,0.02,WeatherCatV1.15B25,2013-07-14 01:10:00,
2013-07-13 21:15:00,68.9,66.8,30.24,NNE,13,0.0,0.0,93,0.00,,,0.02,WeatherCatV1.15B25,2013-07-14 01:15:00,
2013-07-13 21:20:00,68.9,66.8,30.24,NNE,13,0.0,0.0,93,0.00,,,0.02,WeatherCatV1.15B25,2013-07-14 01:20:00,
2013-07-13 21:25:00,68.9,66.8,30.24,NNE,13,0.0,0.0,93,0.00,,,0.02,WeatherCatV1.15B25,2013-07-14 01:25:00,
2013-07-13 21:30:00,68.9,66.8,30.24,NNE,13,0.0,0.0,93,0.00,,,0.02,WeatherCatV1.15B25,2013-07-14 01:30:00,
2013-07-13 21:35:00,69.0,67.2,30.24,NNE,13,0.0,0.0,94,0.00,,,0.02,WeatherCatV1.15B25,2013-07-14 01:35:00,
2013-07-13 21:40:00,69.0,67.2,30.24,NNE,13,0.0,0.0,94,0.00,,,0.02,WeatherCatV1.15B25,2013-07-14 01:40:00,
2013-07-13 21:45:00,68.9,66.8,30.24,NNE,13,0.0,0.0,93,0.00,,,0.02,WeatherCatV1.15B25,2013-07-14 01:45:00,
2013-07-13 21:50:00,68.9,67.1,30.24,NNE,13,0.0,0.0,94,0.00,,,0.02,WeatherCatV1.15B25,2013-07-14 01:50:00,
2013-07-13 21:55:00,68.9,67.1,30.24,NNE,13,0.0,0.0,94,0.00,,,0.02,WeatherCatV1.15B25,2013-07-14 01:55:00,
2013-07-13 22:00:00,68.8,67.0,30.24,NNE,13,0.0,0.0,94,0.00,,,0.02,WeatherCatV1.15B25,2013-07-14 02:00:00,
2013-07-13 22:05:00,68.7,66.9,30.23,NNE,13,0.0,0.0,94,0.00,,,0.02,WeatherCatV1.15B25,2013-07-14 02:05:00,
2013-07-13 22:10:00,68.6,66.8,30.23,NNE,13,0.0,0.0,94,0.00,,,0.02,WeatherCatV1.15B25,2013-07-14 02:10:00,
2013-07-13 22:15:00,68.6,66.8,30.23,NNE,13,0.0,0.0,94,0.00,,,0.02,WeatherCatV1.15B25,2013-07-14 02:15:00,
2013-07-13 22:20:00,68.5,66.7,30.23,NNE,13,0.0,0.0,94,0.00,,,0.02,WeatherCatV1.15B25,2013-07-14 02:20:00,
2013-07-13 22:25:00,68.4,66.6,30.23,NNE,13,0.0,0.0,94,0.00,,,0.02,WeatherCatV1.15B25,2013-07-14 02:25:00,
2013-07-13 22:30:00,68.3,66.8,30.23,NNE,13,0.0,0.0,95,0.00,,,0.02,WeatherCatV1.15B25,2013-07-14 02:30:00,
2013-07-13 22:35:00,68.2,66.7,30.23,NNE,13,0.0,0.0,95,0.00,,,0.02,WeatherCatV1.15B25,2013-07-14 02:35:00,
2013-07-13 22:40:00,68.1,66.6,30.23,NNE,13,0.0,0.0,95,0.00,,,0.02,WeatherCatV1.15B25,2013-07-14 02:40:00,
2013-07-13 22:45:00,68.1,66.6,30.23,NNE,13,0.0,0.0,95,0.00,,,0.02,WeatherCatV1.15B25,2013-07-14 02:45:00,
2013-07-13 22:50:00,68.1,66.6,30.23,NNE,13,0.0,0.0,95,0.00,,,0.02,WeatherCatV1.15B25,2013-07-14 02:50:00,
2013-07-13 22:55:00,68.1,66.6,30.23,NNE,13,0.0,0.0,95,0.00,,,0.02,WeatherCatV1.15B25,2013-07-14 02:55:00,
2013-07-13 23:00:00,68.1,66.6,30.23,NNE,13,0.0,0.0,95,0.00,,,0.02,WeatherCatV1.15B25,2013-07-14 03:00:00,
2013-07-13 23:05:00,68.1,66.6,30.23,NNE,13,0.0,0.0,95,0.00,,,0.02,WeatherCatV1.15B25,2013-07-14 03:05:00,
2013-07-13 23:10:00,68.0,66.5,30.23,NNE,13,0.0,0.0,95,0.00,,,0.02,WeatherCatV1.15B25,2013-07-14 03:10:00,
2013-07-13 23:15:00,68.1,66.9,30.23,NNE,13,0.0,0.0,96,0.00,,,0.02,WeatherCatV1.15B25,2013-07-14 03:15:00,
2013-07-13 23:20:00,68.2,67.0,30.23,NNE,13,0.0,0.0,96,0.00,,,0.02,WeatherCatV1.15B25,2013-07-14 03:20:00,
2013-07-13 23:25:00,68.3,67.1,30.23,NNE,13,0.0,0.0,96,0.00,,,0.02,WeatherCatV1.15B25,2013-07-14 03:25:00,
2013-07-13 23:30:00,68.4,67.2,30.23,NNE,13,0.0,0.0,96,0.00,,,0.02,WeatherCatV1.15B25,2013-07-14 03:30:00,
2013-07-13 23:35:00,68.5,67.3,30.24,NNE,13,0.0,0.0,96,0.00,,,0.02,WeatherCatV1.15B25,2013-07-14 03:35:00,
2013-07-13 23:40:00,68.6,67.4,30.24,NNE,13,0.0,0.0,96,0.00,,,0.02,WeatherCatV1.15B25,2013-07-14 03:40:00,
2013-07-13 23:45:00,68.8,67.6,30.23,NNE,13,0.0,0.0,96,0.00,,,0.02,WeatherCatV1.15B25,2013-07-14 03:45:00,
2013-07-13 23:50:00,68.9,67.7,30.23,NNE,13,0.0,0.0,96,0.00,,,0.02,WeatherCatV1.15B25,2013-07-14 03:50:00,
2013-07-13 23:55:00,69.1,68.2,30.23,NNE,13,0.0,0.0,97,0.00,,,0.02,WeatherCatV1.15B25,2013-07-14 03:55:00,